Pensacola, FL

11:05 PM CST on February 19, 2017 (GMT -0600)
Pensacola Naval Air Station

Weather History for KNPA - August, 2013

Change the Weather History Date:

Monday, August 5, 2013

  Actual Average Record
Temperature  
Mean Temperature 82 °F -  
Max Temperature 91 °F 87 °F 93 °F (2004)
Min Temperature 73 °F 72 °F 72 °F (2005)
Cooling Degree Days 17    
Growing Degree Days 32 (Base 50)    
Moisture  
Dew Point 75 °F    
Average Humidity 83    
Maximum Humidity 97    
Minimum Humidity 61    
Precipitation  
Precipitation 0.00 in - - ()
Sea Level Pressure  
Sea Level Pressure 30.00 in    
Wind  
Wind Speed 4 mph (WNW)    
Max Wind Speed 14 mph    
Max Gust Speed 18 mph    
Visibility 10 miles    
Events Thunderstorm    
Averages and records for this station are not official NWS values.
T = Trace of Precipitation, MM = Missing Value Source: NWS Daily Summary

Daily Weather History Graph

Daily Weather History Graph

Search for Another Location

Airport or City:

Trip Planner

Search our weather history database for the weather conditions in past years. The results will help you decide how hot, cold, wet, or windy it might be!

Date:

Astronomy

Aug. 05, 2013 Rise Set
Actual Time 6:10 AM CDT 7:39 PM CDT
Civil Twilight 5:44 AM CDT 8:05 PM CDT
Nautical Twilight 5:13 AM CDT 8:36 PM CDT
Astronomical Twilight 4:41 AM CDT 9:08 PM CDT
Moon 5:04 AM CDT (8/5) 6:42 PM CDT (8/5)
Length of Visible Light 14h 21m
Length of Day
13h 29m
Waning Crescent, 1% of the Moon is Illuminated
Aug 5
Waning Crescent
Aug 6
New
Aug 14
First Quarter
Aug 20
Full
Aug 28
Last Quarter

Hourly Weather History & Observations

Time (CDT) Temp. Heat Index Dew Point Humidity Pressure Visibility Wind Dir Wind Speed Gust Speed Precip Events Conditions
12:56 AM 75.9 °F - 73.9 °F 94% 30.03 in 10.0 mi Calm Calm - N/A   Clear
1:56 AM 75.0 °F - 73.0 °F 94% 30.01 in 10.0 mi Calm Calm - N/A   Clear
2:56 AM 73.9 °F - 73.0 °F 97% 30.00 in 8.0 mi Calm Calm - N/A   Clear
3:56 AM 73.9 °F - 73.0 °F 97% 29.99 in 10.0 mi NW 3.5 mph - N/A   Clear
4:56 AM 75.0 °F - 72.0 °F 90% 30.00 in 10.0 mi NW 3.5 mph - N/A   Clear
5:56 AM 73.9 °F - 73.0 °F 97% 30.01 in 10.0 mi NNW 4.6 mph - N/A   Scattered Clouds
6:56 AM 75.9 °F - 73.9 °F 94% 30.03 in 10.0 mi NNW 3.5 mph - N/A   Mostly Cloudy
7:56 AM 80.1 °F 85.4 °F 75.9 °F 87% 30.03 in 10.0 mi NNW 3.5 mph - N/A   Mostly Cloudy
8:56 AM 84.0 °F 92.6 °F 75.9 °F 76% 30.04 in 10.0 mi North 6.9 mph - N/A   Mostly Cloudy
9:56 AM 87.1 °F 98.8 °F 77.0 °F 72% 30.04 in 10.0 mi NNW 4.6 mph - N/A   Mostly Cloudy
10:56 AM 88.0 °F 98.5 °F 75.9 °F 67% 30.04 in 10.0 mi WNW 5.8 mph - N/A   Mostly Cloudy
11:56 AM 90.0 °F 100.2 °F 75.0 °F 61% 30.02 in 10.0 mi NNW 5.8 mph - N/A   Mostly Cloudy
12:56 PM 91.0 °F 102.9 °F 75.9 °F 61% 30.01 in 10.0 mi Variable 4.6 mph - N/A   Mostly Cloudy
1:56 PM 87.1 °F 99.8 °F 78.1 °F 74% 29.99 in 10.0 mi South 12.7 mph 18.4 mph N/A   Mostly Cloudy
2:56 PM 84.0 °F 96.0 °F 79.0 °F 85% 29.97 in 10.0 mi SSE 13.8 mph - 0.00 in Thunderstorm Thunderstorm
3:45 PM 84.2 °F 96.1 °F 78.8 °F 84% 29.96 in 10.0 mi SSW 8.1 mph - 0.00 in   Mostly Cloudy
3:56 PM 84.9 °F 95.3 °F 77.0 °F 77% 29.96 in 10.0 mi South 9.2 mph - 0.00 in   Mostly Cloudy
4:28 PM 86.0 °F 99.3 °F 78.8 °F 79% 29.95 in 10.0 mi SSW 6.9 mph - N/A Thunderstorm Thunderstorm
4:56 PM 82.9 °F 90.2 °F 75.0 °F 77% 29.96 in 10.0 mi WSW 5.8 mph - N/A Thunderstorm Thunderstorm
5:06 PM 82.4 °F 89.5 °F 75.2 °F 79% 29.96 in 10.0 mi SW 11.5 mph - N/A   Overcast
5:56 PM 82.9 °F 90.8 °F 75.9 °F 79% 29.97 in 10.0 mi WSW 5.8 mph - N/A   Mostly Cloudy
6:56 PM 82.0 °F 88.6 °F 75.0 °F 79% 29.98 in 10.0 mi Calm Calm - N/A   Mostly Cloudy
7:56 PM 82.0 °F 89.4 °F 75.9 °F 82% 29.99 in 10.0 mi NW 3.5 mph - N/A   Overcast
8:56 PM 80.1 °F 85.1 °F 75.0 °F 85% 29.98 in 10.0 mi NW 4.6 mph - N/A   Overcast
9:56 PM 79.0 °F - 75.0 °F 88% 30.00 in 10.0 mi NW 3.5 mph - N/A   Mostly Cloudy
10:56 PM 78.1 °F - 75.0 °F 90% 29.98 in 10.0 mi NNW 3.5 mph - N/A   Mostly Cloudy
11:56 PM 77.0 °F - 75.0 °F 94% 29.98 in 10.0 mi NNW 3.5 mph - N/A   Clear